Year,Month,Day,Hour,Minute,Value (Times are PST for windgust in km/hr)
2010,11,19,00,00,3.20
2010,11,19,00,01,3.20
2010,11,19,00,02,4.80
2010,11,19,00,03,1.60
2010,11,19,00,04,8.10
2010,11,19,00,05,6.40
2010,11,19,00,06,4.80
2010,11,19,00,07,3.20
2010,11,19,00,08,8.10
2010,11,19,00,09,9.60
2010,11,19,00,10,6.40
2010,11,19,00,11,3.20
2010,11,19,00,12,3.20
2010,11,19,00,13,6.40
2010,11,19,00,14,8.10
2010,11,19,00,15,1.60
2010,11,19,00,16,3.20
2010,11,19,00,17,1.60
2010,11,19,00,18,4.80
2010,11,19,00,19,1.60
2010,11,19,00,23,1.60
2010,11,19,00,24,3.20
2010,11,19,00,25,1.60
2010,11,19,00,26,3.20
2010,11,19,00,27,3.20
2010,11,19,00,28,1.60
2010,11,19,00,29,1.60
2010,11,19,00,31,3.20
2010,11,19,00,32,1.60
2010,11,19,00,33,1.60
2010,11,19,00,34,1.60
2010,11,19,00,35,3.20
2010,11,19,00,36,4.80
2010,11,19,00,37,3.20
2010,11,19,00,38,4.80
2010,11,19,00,40,1.60
2010,11,19,00,42,1.60
2010,11,19,00,52,1.60
2010,11,19,00,53,1.60
2010,11,19,00,54,1.60
2010,11,19,00,55,1.60
2010,11,19,00,56,1.60
2010,11,19,00,58,1.60
2010,11,19,00,59,1.60
2010,11,19,01,03,1.60
2010,11,19,01,04,1.60
2010,11,19,01,16,1.60
2010,11,19,01,17,4.80
2010,11,19,01,18,6.40
2010,11,19,01,19,8.10
2010,11,19,01,20,3.20
2010,11,19,01,21,4.80
2010,11,19,01,22,3.20
2010,11,19,01,23,1.60
2010,11,19,01,25,1.60
2010,11,19,01,26,4.80
2010,11,19,01,27,6.40
2010,11,19,01,28,6.40
2010,11,19,01,29,3.20
2010,11,19,01,30,6.40
2010,11,19,01,31,4.80
2010,11,19,01,32,3.20
2010,11,19,01,33,1.60
2010,11,19,01,34,3.20
2010,11,19,01,35,1.60
2010,11,19,01,37,3.20
2010,11,19,01,39,1.60
2010,11,19,01,40,3.20
2010,11,19,01,41,1.60
2010,11,19,01,42,3.20
2010,11,19,01,43,4.80
2010,11,19,01,44,4.80
2010,11,19,01,45,4.80
2010,11,19,01,46,4.80
2010,11,19,01,47,3.20
2010,11,19,01,48,3.20
2010,11,19,01,49,1.60
2010,11,19,01,51,3.20
2010,11,19,01,52,3.20
2010,11,19,01,53,3.20
2010,11,19,01,54,1.60
2010,11,19,01,55,1.60
2010,11,19,01,56,3.20
2010,11,19,01,57,1.60
2010,11,19,01,58,3.20
2010,11,19,01,59,1.60
2010,11,19,02,00,1.60
2010,11,19,02,01,3.20
2010,11,19,02,02,1.60
2010,11,19,02,03,1.60
2010,11,19,02,04,1.60
2010,11,19,02,05,4.80
2010,11,19,02,06,6.40
2010,11,19,02,07,6.40
2010,11,19,02,08,4.80
2010,11,19,02,09,3.20
2010,11,19,02,10,1.60
2010,11,19,02,11,1.60
2010,11,19,02,12,1.60
2010,11,19,02,13,1.60
2010,11,19,02,14,3.20
2010,11,19,02,15,4.80
2010,11,19,02,16,4.80
2010,11,19,02,17,4.80
2010,11,19,02,18,4.80
2010,11,19,02,19,8.10
2010,11,19,02,20,4.80
2010,11,19,02,21,4.80
2010,11,19,02,22,3.20
2010,11,19,02,23,3.20
2010,11,19,02,24,3.20
2010,11,19,02,25,8.10
2010,11,19,02,26,1.60
2010,11,19,02,27,4.80
2010,11,19,02,28,3.20
2010,11,19,02,29,3.20
2010,11,19,02,30,6.40
2010,11,19,02,31,6.40
2010,11,19,02,32,6.40
2010,11,19,02,33,3.20
2010,11,19,02,34,4.80
2010,11,19,02,35,6.40
2010,11,19,02,36,3.20
2010,11,19,02,37,1.60
2010,11,19,02,38,4.80
2010,11,19,02,39,1.60
2010,11,19,02,40,3.20
2010,11,19,02,41,3.20
2010,11,19,02,42,1.60
2010,11,19,02,43,6.40
2010,11,19,02,44,4.80
2010,11,19,02,47,3.20
2010,11,19,02,48,3.20
2010,11,19,02,49,1.60
2010,11,19,02,50,1.60
2010,11,19,02,51,3.20
2010,11,19,02,52,4.80
2010,11,19,02,53,4.80
2010,11,19,02,55,3.20
2010,11,19,02,56,4.80
2010,11,19,02,57,3.20
2010,11,19,02,58,4.80
2010,11,19,02,59,1.60
2010,11,19,03,00,4.80
2010,11,19,03,01,4.80
2010,11,19,03,02,3.20
2010,11,19,03,03,4.80
2010,11,19,03,04,3.20
2010,11,19,03,06,1.60
2010,11,19,03,08,1.60
2010,11,19,03,09,1.60
2010,11,19,03,10,4.80
2010,11,19,03,11,3.20
2010,11,19,03,12,3.20
2010,11,19,03,13,3.20
2010,11,19,03,14,4.80
2010,11,19,03,15,8.10
2010,11,19,03,16,3.20
2010,11,19,03,17,3.20
2010,11,19,03,18,3.20
2010,11,19,03,19,4.80
2010,11,19,03,20,3.20
2010,11,19,03,21,4.80
2010,11,19,03,22,4.80
2010,11,19,03,23,3.20
2010,11,19,03,24,9.60
2010,11,19,03,25,1.60
2010,11,19,03,26,1.60
2010,11,19,03,27,1.60
2010,11,19,03,28,4.80
2010,11,19,03,30,3.20
2010,11,19,03,31,1.60
2010,11,19,03,32,1.60
2010,11,19,03,33,1.60
2010,11,19,03,34,3.20
2010,11,19,03,36,3.20
2010,11,19,03,37,3.20
2010,11,19,03,38,3.20
2010,11,19,03,39,1.60
2010,11,19,03,42,4.80
2010,11,19,03,43,1.60
2010,11,19,03,44,1.60
2010,11,19,03,45,1.60
2010,11,19,03,46,1.60
2010,11,19,03,48,1.60
2010,11,19,03,49,1.60
2010,11,19,03,52,3.20
2010,11,19,03,53,3.20
2010,11,19,03,54,4.80
2010,11,19,03,55,4.80
2010,11,19,03,56,4.80
2010,11,19,03,57,1.60
2010,11,19,03,58,3.20
2010,11,19,03,59,3.20
2010,11,19,04,00,3.20
2010,11,19,04,01,1.60
2010,11,19,04,04,1.60
2010,11,19,04,05,1.60
2010,11,19,04,06,1.60
2010,11,19,04,08,1.60
2010,11,19,04,10,1.60
2010,11,19,04,11,4.80
2010,11,19,04,14,1.60
2010,11,19,04,23,3.20
2010,11,19,04,24,1.60
2010,11,19,04,25,1.60
2010,11,19,04,26,1.60
2010,11,19,04,41,1.60
2010,11,19,04,42,3.20
2010,11,19,04,43,3.20
2010,11,19,04,44,3.20
2010,11,19,04,45,3.20
2010,11,19,04,46,1.60
2010,11,19,04,48,1.60
2010,11,19,04,53,1.60
2010,11,19,04,54,1.60
2010,11,19,04,55,1.60
2010,11,19,04,56,1.60
2010,11,19,05,39,1.60
2010,11,19,05,40,3.20
2010,11,19,05,41,3.20
2010,11,19,05,43,1.60
2010,11,19,05,44,1.60
2010,11,19,05,47,6.40
2010,11,19,05,48,4.80
2010,11,19,05,50,1.60
2010,11,19,05,53,1.60
2010,11,19,05,56,3.20
2010,11,19,05,57,1.60
2010,11,19,05,58,3.20
2010,11,19,05,59,1.60
2010,11,19,06,00,1.60
2010,11,19,06,01,1.60
2010,11,19,06,03,1.60
2010,11,19,06,10,1.60
2010,11,19,06,11,1.60
2010,11,19,06,12,3.20
2010,11,19,06,14,1.60
2010,11,19,06,15,3.20
2010,11,19,06,16,3.20
2010,11,19,06,18,1.60
2010,11,19,06,19,6.40
2010,11,19,06,20,4.80
2010,11,19,06,21,1.60
2010,11,19,06,22,1.60
2010,11,19,06,23,1.60
2010,11,19,06,24,6.40
2010,11,19,06,25,1.60
2010,11,19,06,27,4.80
2010,11,19,06,28,1.60
2010,11,19,06,29,1.60
2010,11,19,06,30,1.60
2010,11,19,06,31,1.60
2010,11,19,06,32,1.60
2010,11,19,06,33,1.60
2010,11,19,06,34,4.80
2010,11,19,06,38,3.20
2010,11,19,06,39,3.20
2010,11,19,06,40,3.20
2010,11,19,06,41,1.60
2010,11,19,06,42,3.20
2010,11,19,06,43,3.20
2010,11,19,06,44,8.10
2010,11,19,06,45,6.40
2010,11,19,06,46,8.10
2010,11,19,06,47,6.40
2010,11,19,06,48,3.20
2010,11,19,06,49,4.80
2010,11,19,06,50,4.80
2010,11,19,06,51,8.10
2010,11,19,06,52,8.10
2010,11,19,06,53,4.80
2010,11,19,06,54,4.80
2010,11,19,06,55,4.80
2010,11,19,06,56,3.20
2010,11,19,06,57,3.20
2010,11,19,06,58,3.20
2010,11,19,06,59,1.60
2010,11,19,07,00,1.60
2010,11,19,07,01,1.60
2010,11,19,07,04,4.80
2010,11,19,07,05,6.40
2010,11,19,07,06,4.80
2010,11,19,07,07,9.60
2010,11,19,07,08,6.40
2010,11,19,07,09,4.80
2010,11,19,07,10,4.80
2010,11,19,07,11,4.80
2010,11,19,07,12,4.80
2010,11,19,07,13,4.80
2010,11,19,07,14,6.40
2010,11,19,07,15,6.40
2010,11,19,07,16,8.10
2010,11,19,07,17,1.60
2010,11,19,07,18,3.20
2010,11,19,07,19,1.60
2010,11,19,07,23,3.20
2010,11,19,07,24,3.20
2010,11,19,07,25,4.80
2010,11,19,07,26,4.80
2010,11,19,07,27,4.80
2010,11,19,07,28,3.20
2010,11,19,07,29,3.20
2010,11,19,07,30,4.80
2010,11,19,07,31,8.10
2010,11,19,07,32,8.10
2010,11,19,07,33,4.80
2010,11,19,07,34,3.20
2010,11,19,07,35,4.80
2010,11,19,07,36,6.40
2010,11,19,07,37,3.20
2010,11,19,07,38,1.60
2010,11,19,07,39,3.20
2010,11,19,07,40,1.60
2010,11,19,07,41,8.10
2010,11,19,07,42,3.20
2010,11,19,07,43,4.80
2010,11,19,07,44,12.90
2010,11,19,07,45,9.60
2010,11,19,07,46,8.10
2010,11,19,07,47,6.40
2010,11,19,07,48,6.40
2010,11,19,07,49,3.20
2010,11,19,07,50,3.20
2010,11,19,07,51,1.60
2010,11,19,07,52,3.20
2010,11,19,07,53,1.60
2010,11,19,07,54,1.60
2010,11,19,07,55,1.60
2010,11,19,07,56,1.60
2010,11,19,07,58,6.40
2010,11,19,07,59,1.60
2010,11,19,08,01,1.60
2010,11,19,08,02,4.80
2010,11,19,08,03,1.60
2010,11,19,08,04,1.60
2010,11,19,08,05,1.60
2010,11,19,08,06,1.60
2010,11,19,08,07,4.80
2010,11,19,08,08,4.80
2010,11,19,08,09,4.80
2010,11,19,08,10,1.60
2010,11,19,08,11,4.80
2010,11,19,08,12,4.80
2010,11,19,08,13,3.20
2010,11,19,08,14,3.20
2010,11,19,08,15,3.20
2010,11,19,08,16,1.60
2010,11,19,08,17,6.40
2010,11,19,08,18,3.20
2010,11,19,08,19,3.20
2010,11,19,08,20,3.20
2010,11,19,08,21,1.60
2010,11,19,08,22,6.40
2010,11,19,08,23,4.80
2010,11,19,08,24,1.60
2010,11,19,08,25,1.60
2010,11,19,08,26,4.80
2010,11,19,08,27,3.20
2010,11,19,08,28,3.20
2010,11,19,08,29,4.80
2010,11,19,08,30,6.40
2010,11,19,08,31,4.80
2010,11,19,08,32,3.20
2010,11,19,08,33,4.80
2010,11,19,08,34,3.20
2010,11,19,08,35,1.60
2010,11,19,08,36,1.60
2010,11,19,08,37,8.10
2010,11,19,08,38,4.80
2010,11,19,08,39,1.60
2010,11,19,08,40,1.60
2010,11,19,08,41,3.20
2010,11,19,08,42,1.60
2010,11,19,08,43,3.20
2010,11,19,08,44,3.20
2010,11,19,08,45,3.20
2010,11,19,08,47,3.20
2010,11,19,08,48,3.20
2010,11,19,08,49,1.60
2010,11,19,08,50,1.60
2010,11,19,08,51,4.80
2010,11,19,08,52,1.60
2010,11,19,08,53,1.60
2010,11,19,08,54,3.20
2010,11,19,08,55,1.60
2010,11,19,08,56,1.60
2010,11,19,08,58,6.40
2010,11,19,08,59,4.80
2010,11,19,09,00,1.60
2010,11,19,09,01,6.40
2010,11,19,09,02,4.80
2010,11,19,09,03,4.80
2010,11,19,09,04,6.40
2010,11,19,09,05,3.20
2010,11,19,09,06,6.40
2010,11,19,09,07,3.20
2010,11,19,09,08,4.80
2010,11,19,09,09,4.80
2010,11,19,09,10,6.40
2010,11,19,09,11,6.40
2010,11,19,09,12,6.40
2010,11,19,09,13,4.80
2010,11,19,09,14,3.20
2010,11,19,09,15,1.60
2010,11,19,09,16,4.80
2010,11,19,09,17,4.80
2010,11,19,09,18,9.60
2010,11,19,09,19,1.60
2010,11,19,09,20,1.60
2010,11,19,09,21,4.80
2010,11,19,09,22,3.20
2010,11,19,09,23,1.60
2010,11,19,09,26,1.60
2010,11,19,09,27,3.20
2010,11,19,09,29,1.60
2010,11,19,09,30,1.60
2010,11,19,09,32,1.60
2010,11,19,09,34,4.80
2010,11,19,09,35,4.80
2010,11,19,09,36,3.20
2010,11,19,09,37,6.40
2010,11,19,09,38,6.40
2010,11,19,09,39,1.60
2010,11,19,09,41,1.60
2010,11,19,09,45,1.60
2010,11,19,09,46,1.60
2010,11,19,09,48,6.40
2010,11,19,09,49,4.80
2010,11,19,09,50,1.60
2010,11,19,09,51,8.10
2010,11,19,09,52,6.40
2010,11,19,09,53,3.20
2010,11,19,09,54,1.60
2010,11,19,09,55,6.40
2010,11,19,09,56,11.30
2010,11,19,09,57,6.40
2010,11,19,09,58,8.10
2010,11,19,09,59,4.80
2010,11,19,10,00,1.60
2010,11,19,10,01,4.80
2010,11,19,10,02,6.40
2010,11,19,10,03,8.10
2010,11,19,10,04,6.40
2010,11,19,10,05,3.20
2010,11,19,10,06,3.20
2010,11,19,10,07,1.60
2010,11,19,10,08,1.60
2010,11,19,10,09,6.40
2010,11,19,10,10,3.20
2010,11,19,10,11,9.60
2010,11,19,10,12,8.10
2010,11,19,10,13,6.40
2010,11,19,10,14,1.60
2010,11,19,10,15,8.10
2010,11,19,10,16,9.60
2010,11,19,10,17,3.20
2010,11,19,10,18,1.60
2010,11,19,10,19,1.60
2010,11,19,10,20,4.80
2010,11,19,10,21,3.20
2010,11,19,10,22,4.80
2010,11,19,10,23,4.80
2010,11,19,10,24,3.20
2010,11,19,10,25,6.40
2010,11,19,10,26,3.20
2010,11,19,10,27,3.20
2010,11,19,10,28,6.40
2010,11,19,10,29,6.40
2010,11,19,10,31,4.80
2010,11,19,10,32,4.80
2010,11,19,10,33,9.60
2010,11,19,10,34,4.80
2010,11,19,10,35,3.20
2010,11,19,10,36,6.40
2010,11,19,10,37,6.40
2010,11,19,10,38,1.60
2010,11,19,10,39,4.80
2010,11,19,10,40,4.80
2010,11,19,10,41,1.60
2010,11,19,10,42,1.60
2010,11,19,10,43,1.60
2010,11,19,10,44,3.20
2010,11,19,10,45,6.40
2010,11,19,10,46,4.80
2010,11,19,10,47,4.80
2010,11,19,10,48,4.80
2010,11,19,10,49,4.80
2010,11,19,10,50,3.20
2010,11,19,10,51,4.80
2010,11,19,10,52,9.60
2010,11,19,10,53,1.60
2010,11,19,10,54,8.10
2010,11,19,10,55,8.10
2010,11,19,10,56,4.80
2010,11,19,10,57,4.80
2010,11,19,10,58,4.80
2010,11,19,10,59,3.20
2010,11,19,11,00,9.60
2010,11,19,11,01,14.50
2010,11,19,11,03,6.40
2010,11,19,11,04,9.60
2010,11,19,11,05,6.40
2010,11,19,11,06,3.20
2010,11,19,11,07,6.40
2010,11,19,11,08,6.40
2010,11,19,11,09,3.20
2010,11,19,11,11,8.10
2010,11,19,11,12,6.40
2010,11,19,11,13,1.60
2010,11,19,11,14,3.20
2010,11,19,11,15,4.80
2010,11,19,11,16,1.60
2010,11,19,11,17,4.80
2010,11,19,11,18,1.60
2010,11,19,11,20,1.60
2010,11,19,11,21,1.60
2010,11,19,11,22,3.20
2010,11,19,11,23,4.80
2010,11,19,11,24,3.20
2010,11,19,11,25,1.60
2010,11,19,11,26,1.60
2010,11,19,11,27,1.60
2010,11,19,11,29,4.80
2010,11,19,11,30,3.20
2010,11,19,11,31,6.40
2010,11,19,11,32,3.20
2010,11,19,11,33,4.80
2010,11,19,11,34,3.20
2010,11,19,11,35,8.10
2010,11,19,11,36,4.80
2010,11,19,11,37,6.40
2010,11,19,11,38,4.80
2010,11,19,11,39,1.60
2010,11,19,11,41,6.40
2010,11,19,11,42,3.20
2010,11,19,11,43,9.60
2010,11,19,11,44,6.40
2010,11,19,11,45,8.10
2010,11,19,11,46,1.60
2010,11,19,11,47,1.60
2010,11,19,11,48,8.10
2010,11,19,11,49,6.40
2010,11,19,11,50,6.40
2010,11,19,11,51,1.60
2010,11,19,11,52,6.40
2010,11,19,11,53,4.80
2010,11,19,11,54,4.80
2010,11,19,11,55,8.10
2010,11,19,11,56,8.10
2010,11,19,11,57,1.60
2010,11,19,11,58,6.40
2010,11,19,11,59,4.80
2010,11,19,12,00,3.20
2010,11,19,12,01,1.60
2010,11,19,12,02,3.20
2010,11,19,12,03,3.20
2010,11,19,12,04,3.20
2010,11,19,12,05,3.20
2010,11,19,12,06,4.80
2010,11,19,12,07,4.80
2010,11,19,12,08,6.40
2010,11,19,12,09,3.20
2010,11,19,12,10,1.60
2010,11,19,12,11,4.80
2010,11,19,12,12,6.40
2010,11,19,12,13,4.80
2010,11,19,12,14,1.60
2010,11,19,12,15,1.60
2010,11,19,12,16,6.40
2010,11,19,12,17,4.80
2010,11,19,12,18,4.80
2010,11,19,12,19,3.20
2010,11,19,12,20,1.60
2010,11,19,12,21,9.60
2010,11,19,12,22,6.40
2010,11,19,12,23,6.40
2010,11,19,12,24,4.80
2010,11,19,12,25,1.60
2010,11,19,12,27,11.30
2010,11,19,12,28,9.60
2010,11,19,12,29,9.60
2010,11,19,12,30,16.10
2010,11,19,12,31,19.30
2010,11,19,12,32,14.50
2010,11,19,12,33,6.40
2010,11,19,12,34,9.60
2010,11,19,12,35,11.30
2010,11,19,12,36,3.20
2010,11,19,12,37,8.10
2010,11,19,12,38,6.40
2010,11,19,12,39,19.30
2010,11,19,12,40,17.70
2010,11,19,12,41,9.60
2010,11,19,12,42,9.60
2010,11,19,12,43,9.60
2010,11,19,12,44,9.60
2010,11,19,12,45,14.50
2010,11,19,12,46,9.60
2010,11,19,12,47,11.30
2010,11,19,12,48,8.10
2010,11,19,12,49,20.90
2010,11,19,12,50,9.60
2010,11,19,12,51,9.60
2010,11,19,12,52,22.50
2010,11,19,12,53,9.60
2010,11,19,12,54,17.70
2010,11,19,12,55,14.50
2010,11,19,12,56,20.90
2010,11,19,12,57,11.30
2010,11,19,12,58,14.50
2010,11,19,12,59,22.50
2010,11,19,13,00,24.20
2010,11,19,13,01,16.10
2010,11,19,13,02,38.60
2010,11,19,13,03,19.30
2010,11,19,13,04,20.90
2010,11,19,13,05,14.50
2010,11,19,13,06,19.30
2010,11,19,13,07,19.30
2010,11,19,13,08,17.70
2010,11,19,13,09,25.70
2010,11,19,13,10,20.90
2010,11,19,13,11,25.70
2010,11,19,13,12,24.20
2010,11,19,13,13,11.30
2010,11,19,13,14,22.50
2010,11,19,13,15,14.50
2010,11,19,13,16,22.50
2010,11,19,13,17,32.20
2010,11,19,13,18,20.90
2010,11,19,13,19,27.40
2010,11,19,13,20,20.90
2010,11,19,13,21,17.70
2010,11,19,13,22,11.30
2010,11,19,13,23,20.90
2010,11,19,13,24,16.10
2010,11,19,13,25,27.40
2010,11,19,13,26,17.70
2010,11,19,13,27,24.20
2010,11,19,13,28,19.30
2010,11,19,13,29,16.10
2010,11,19,13,30,14.50
2010,11,19,13,31,11.30
2010,11,19,13,32,16.10
2010,11,19,13,33,14.50
2010,11,19,13,34,12.90
2010,11,19,13,35,19.30
2010,11,19,13,36,16.10
2010,11,19,13,37,17.70
2010,11,19,13,38,14.50
2010,11,19,13,39,12.90
2010,11,19,13,40,11.30
2010,11,19,13,41,16.10
2010,11,19,13,42,25.70
2010,11,19,13,43,19.30
2010,11,19,13,44,11.30
2010,11,19,13,45,16.10
2010,11,19,13,46,9.60
2010,11,19,13,47,11.30
2010,11,19,13,48,17.70
2010,11,19,13,49,22.50
2010,11,19,13,50,16.10
2010,11,19,13,51,9.60
2010,11,19,13,52,17.70
2010,11,19,13,53,19.30
2010,11,19,13,54,25.70
2010,11,19,13,55,16.10
2010,11,19,13,56,19.30
2010,11,19,13,57,19.30
2010,11,19,13,58,17.70
2010,11,19,13,59,9.60
2010,11,19,14,00,17.70
2010,11,19,14,01,22.50
2010,11,19,14,02,32.20
2010,11,19,14,03,22.50
2010,11,19,14,04,19.30
2010,11,19,14,05,17.70
2010,11,19,14,06,16.10
2010,11,19,14,07,9.60
2010,11,19,14,08,11.30
2010,11,19,14,09,19.30
2010,11,19,14,10,17.70
2010,11,19,14,11,9.60
2010,11,19,14,12,4.80
2010,11,19,14,13,8.10
2010,11,19,14,14,16.10
2010,11,19,14,15,16.10
2010,11,19,14,16,19.30
2010,11,19,14,17,19.30
2010,11,19,14,18,16.10
2010,11,19,14,19,19.30
2010,11,19,14,20,14.50
2010,11,19,14,21,17.70
2010,11,19,14,22,14.50
2010,11,19,14,23,16.10
2010,11,19,14,24,9.60
2010,11,19,14,25,16.10
2010,11,19,14,26,14.50
2010,11,19,14,27,20.90
2010,11,19,14,28,22.50
2010,11,19,14,29,20.90
2010,11,19,14,30,24.20
2010,11,19,14,31,24.20
2010,11,19,14,32,22.50
2010,11,19,14,33,9.60
2010,11,19,14,34,24.20
2010,11,19,14,35,14.50
2010,11,19,14,36,19.30
2010,11,19,14,37,16.10
2010,11,19,14,38,16.10
2010,11,19,14,39,19.30
2010,11,19,14,40,27.40
2010,11,19,14,41,16.10
2010,11,19,14,42,9.60
2010,11,19,14,43,19.30
2010,11,19,14,44,24.20
2010,11,19,14,45,22.50
2010,11,19,14,46,22.50
2010,11,19,14,47,17.70
2010,11,19,14,48,25.70
2010,11,19,14,49,11.30
2010,11,19,14,50,17.70
2010,11,19,14,51,16.10
2010,11,19,14,52,14.50
2010,11,19,14,53,8.10
2010,11,19,14,54,9.60
2010,11,19,14,55,22.50
2010,11,19,14,56,19.30
2010,11,19,14,57,19.30
2010,11,19,14,58,11.30
2010,11,19,14,59,14.50
2010,11,19,15,00,11.30
2010,11,19,15,01,22.50
2010,11,19,15,02,19.30
2010,11,19,15,03,19.30
2010,11,19,15,04,17.70
2010,11,19,15,05,9.60
2010,11,19,15,06,14.50
2010,11,19,15,07,16.10
2010,11,19,15,08,14.50
2010,11,19,15,09,19.30
2010,11,19,15,10,20.90
2010,11,19,15,11,19.30
2010,11,19,15,12,6.40
2010,11,19,15,13,8.10
2010,11,19,15,14,16.10
2010,11,19,15,15,20.90
2010,11,19,15,16,20.90
2010,11,19,15,17,22.50
2010,11,19,15,18,17.70
2010,11,19,15,19,11.30
2010,11,19,15,20,19.30
2010,11,19,15,21,16.10
2010,11,19,15,22,20.90
2010,11,19,15,23,22.50
2010,11,19,15,24,25.70
2010,11,19,15,25,22.50
2010,11,19,15,26,27.40
2010,11,19,15,27,17.70
2010,11,19,15,28,25.70
2010,11,19,15,29,24.20
2010,11,19,15,30,32.20
2010,11,19,15,31,19.30
2010,11,19,15,32,25.70
2010,11,19,15,33,33.80
2010,11,19,15,34,30.60
2010,11,19,15,35,19.30
2010,11,19,15,36,19.30
2010,11,19,15,37,17.70
2010,11,19,15,38,20.90
2010,11,19,15,39,20.90
2010,11,19,15,40,19.30
2010,11,19,15,41,16.10
2010,11,19,15,42,16.10
2010,11,19,15,43,17.70
2010,11,19,15,44,22.50
2010,11,19,15,45,16.10
2010,11,19,15,46,17.70
2010,11,19,15,47,16.10
2010,11,19,15,48,16.10
2010,11,19,15,49,25.70
2010,11,19,15,50,16.10
2010,11,19,15,51,32.20
2010,11,19,15,52,19.30
2010,11,19,15,53,25.70
2010,11,19,15,54,19.30
2010,11,19,15,55,17.70
2010,11,19,15,56,22.50
2010,11,19,15,57,22.50
2010,11,19,15,58,20.90
2010,11,19,15,59,17.70
2010,11,19,16,00,20.90
2010,11,19,16,01,19.30
2010,11,19,16,02,16.10
2010,11,19,16,03,29.00
2010,11,19,16,04,32.20
2010,11,19,16,05,27.40
2010,11,19,16,06,20.90
2010,11,19,16,07,9.60
2010,11,19,16,08,22.50
2010,11,19,16,09,20.90
2010,11,19,16,10,20.90
2010,11,19,16,11,24.20
2010,11,19,16,12,33.80
2010,11,19,16,13,19.30
2010,11,19,16,14,24.20
2010,11,19,16,15,25.70
2010,11,19,16,16,19.30
2010,11,19,16,17,22.50
2010,11,19,16,18,29.00
2010,11,19,16,19,22.50
2010,11,19,16,20,27.40
2010,11,19,16,21,20.90
2010,11,19,16,22,19.30
2010,11,19,16,23,14.50
2010,11,19,16,24,27.40
2010,11,19,16,25,32.20
2010,11,19,16,26,22.50
2010,11,19,16,27,30.60
2010,11,19,16,28,17.70
2010,11,19,16,29,20.90
2010,11,19,16,30,20.90
2010,11,19,16,31,16.10
2010,11,19,16,32,19.30
2010,11,19,16,33,30.60
2010,11,19,16,34,19.30
2010,11,19,16,35,27.40
2010,11,19,16,36,17.70
2010,11,19,16,37,19.30
2010,11,19,16,38,19.30
2010,11,19,16,39,25.70
2010,11,19,16,40,22.50
2010,11,19,16,41,19.30
2010,11,19,16,42,20.90
2010,11,19,16,43,19.30
2010,11,19,16,44,22.50
2010,11,19,16,45,25.70
2010,11,19,16,46,29.00
2010,11,19,16,47,22.50
2010,11,19,16,48,25.70
2010,11,19,16,49,24.20
2010,11,19,16,50,4.80
2010,11,19,16,51,14.50
2010,11,19,16,52,20.90
2010,11,19,16,53,25.70
2010,11,19,16,54,16.10
2010,11,19,16,55,19.30
2010,11,19,16,56,8.10
2010,11,19,16,57,17.70
2010,11,19,16,58,16.10
2010,11,19,16,59,16.10
2010,11,19,17,00,17.70
2010,11,19,17,01,20.90
2010,11,19,17,02,17.70
2010,11,19,17,03,14.50
2010,11,19,17,04,22.50
2010,11,19,17,05,16.10
2010,11,19,17,06,16.10
2010,11,19,17,07,11.30
2010,11,19,17,08,20.90
2010,11,19,17,09,11.30
2010,11,19,17,10,11.30
2010,11,19,17,11,16.10
2010,11,19,17,12,17.70
2010,11,19,17,13,32.20
2010,11,19,17,14,27.40
2010,11,19,17,15,19.30
2010,11,19,17,16,22.50
2010,11,19,17,17,30.60
2010,11,19,17,18,19.30
2010,11,19,17,19,25.70
2010,11,19,17,20,20.90
2010,11,19,17,21,24.20
2010,11,19,17,22,27.40
2010,11,19,17,23,16.10
2010,11,19,17,24,17.70
2010,11,19,17,25,27.40
2010,11,19,17,26,24.20
2010,11,19,17,27,22.50
2010,11,19,17,28,19.30
2010,11,19,17,29,24.20
2010,11,19,17,30,30.60
2010,11,19,17,31,37.00
2010,11,19,17,32,16.10
2010,11,19,17,33,24.20
2010,11,19,17,34,30.60
2010,11,19,17,35,24.20
2010,11,19,17,36,20.90
2010,11,19,17,37,14.50
2010,11,19,17,38,14.50
2010,11,19,17,39,17.70
2010,11,19,17,40,16.10
2010,11,19,17,41,17.70
2010,11,19,17,42,19.30
2010,11,19,17,43,20.90
2010,11,19,17,44,16.10
2010,11,19,17,45,19.30
2010,11,19,17,46,16.10
2010,11,19,17,47,27.40
2010,11,19,17,48,19.30
2010,11,19,17,49,16.10
2010,11,19,17,50,27.40
2010,11,19,17,51,22.50
2010,11,19,17,52,27.40
2010,11,19,17,53,16.10
2010,11,19,17,54,25.70
2010,11,19,17,55,25.70
2010,11,19,17,56,16.10
2010,11,19,17,57,20.90
2010,11,19,17,58,19.30
2010,11,19,17,59,22.50
2010,11,19,18,00,24.20
2010,11,19,18,01,24.20
2010,11,19,18,02,20.90
2010,11,19,18,03,29.00
2010,11,19,18,04,24.20
2010,11,19,18,05,30.60
2010,11,19,18,06,25.70
2010,11,19,18,07,16.10
2010,11,19,18,08,20.90
2010,11,19,18,09,30.60
2010,11,19,18,10,33.80
2010,11,19,18,11,22.50
2010,11,19,18,12,11.30
2010,11,19,18,13,16.10
2010,11,19,18,14,20.90
2010,11,19,18,15,17.70
2010,11,19,18,16,8.10
2010,11,19,18,17,14.50
2010,11,19,18,18,11.30
2010,11,19,18,19,17.70
2010,11,19,18,20,9.60
2010,11,19,18,21,6.40
2010,11,19,18,22,16.10
2010,11,19,18,23,6.40
2010,11,19,18,24,11.30
2010,11,19,18,25,14.50
2010,11,19,18,26,9.60
2010,11,19,18,27,20.90
2010,11,19,18,28,11.30
2010,11,19,18,29,20.90
2010,11,19,18,30,14.50
2010,11,19,18,31,14.50
2010,11,19,18,32,11.30
2010,11,19,18,33,16.10
2010,11,19,18,34,20.90
2010,11,19,18,35,24.20
2010,11,19,18,36,9.60
2010,11,19,18,37,17.70
2010,11,19,18,38,24.20
2010,11,19,18,39,16.10
2010,11,19,18,40,14.50
2010,11,19,18,41,16.10
2010,11,19,18,42,16.10
2010,11,19,18,43,16.10
2010,11,19,18,44,17.70
2010,11,19,18,45,9.60
2010,11,19,18,46,9.60
2010,11,19,18,47,6.40
2010,11,19,18,48,4.80
2010,11,19,18,49,14.50
2010,11,19,18,50,4.80
2010,11,19,18,51,22.50
2010,11,19,18,52,16.10
2010,11,19,18,53,14.50
2010,11,19,18,54,6.40
2010,11,19,18,55,4.80
2010,11,19,18,56,6.40
2010,11,19,18,57,11.30
2010,11,19,18,58,12.90
2010,11,19,18,59,16.10
2010,11,19,19,00,17.70
2010,11,19,19,01,6.40
2010,11,19,19,02,14.50
2010,11,19,19,03,8.10
2010,11,19,19,04,11.30
2010,11,19,19,05,14.50
2010,11,19,19,06,9.60
2010,11,19,19,07,8.10
2010,11,19,19,08,25.70
2010,11,19,19,09,20.90
2010,11,19,19,10,14.50
2010,11,19,19,11,24.20
2010,11,19,19,12,22.50
2010,11,19,19,13,22.50
2010,11,19,19,14,14.50
2010,11,19,19,15,16.10
2010,11,19,19,16,16.10
2010,11,19,19,17,25.70
2010,11,19,19,18,29.00
2010,11,19,19,19,19.30
2010,11,19,19,20,14.50
2010,11,19,19,21,16.10
2010,11,19,19,22,14.50
2010,11,19,19,23,11.30
2010,11,19,19,24,20.90
2010,11,19,19,25,20.90
2010,11,19,19,26,19.30
2010,11,19,19,27,16.10
2010,11,19,19,28,20.90
2010,11,19,19,29,8.10
2010,11,19,19,30,22.50
2010,11,19,19,31,24.20
2010,11,19,19,32,22.50
2010,11,19,19,33,20.90
2010,11,19,19,34,20.90
2010,11,19,19,35,20.90
2010,11,19,19,36,24.20
2010,11,19,19,37,17.70
2010,11,19,19,38,19.30
2010,11,19,19,39,16.10
2010,11,19,19,40,8.10
2010,11,19,19,41,17.70
2010,11,19,19,42,14.50
2010,11,19,19,43,16.10
2010,11,19,19,44,16.10
2010,11,19,19,45,16.10
2010,11,19,19,46,14.50
2010,11,19,19,47,16.10
2010,11,19,19,48,16.10
2010,11,19,19,49,8.10
2010,11,19,19,50,17.70
2010,11,19,19,51,14.50
2010,11,19,19,52,11.30
2010,11,19,19,53,16.10
2010,11,19,19,54,17.70
2010,11,19,19,55,11.30
2010,11,19,19,56,9.60
2010,11,19,19,57,8.10
2010,11,19,19,58,8.10
2010,11,19,19,59,11.30
2010,11,19,20,00,9.60
2010,11,19,20,01,19.30
2010,11,19,20,02,9.60
2010,11,19,20,03,9.60
2010,11,19,20,04,11.30
2010,11,19,20,05,11.30
2010,11,19,20,06,12.90
2010,11,19,20,07,8.10
2010,11,19,20,08,22.50
2010,11,19,20,09,14.50
2010,11,19,20,10,16.10
2010,11,19,20,11,9.60
2010,11,19,20,12,9.60
2010,11,19,20,13,11.30
2010,11,19,20,14,8.10
2010,11,19,20,15,8.10
2010,11,19,20,16,11.30
2010,11,19,20,17,9.60
2010,11,19,20,18,11.30
2010,11,19,20,19,14.50
2010,11,19,20,20,3.20
2010,11,19,20,21,17.70
2010,11,19,20,22,14.50
2010,11,19,20,23,4.80
2010,11,19,20,24,9.60
2010,11,19,20,25,9.60
2010,11,19,20,26,3.20
2010,11,19,20,27,11.30
2010,11,19,20,28,6.40
2010,11,19,20,29,6.40
2010,11,19,20,30,11.30
2010,11,19,20,31,8.10
2010,11,19,20,32,9.60
2010,11,19,20,33,6.40
2010,11,19,20,34,19.30
2010,11,19,20,35,27.40